| time (UTC) | temp F | wind direction | speed MPH | gust MPH | rain 1hr in | rain 24hr in | rain mn in | humidity % | barometer mb |
| 20260902181544 | 66 | 121 | 2.0 | 7.0 | 0.00 | 0.00 | 0.00 | 61 | 1021.5 |
| 20260902180044 | 67 | 131 | 4.0 | 8.0 | 0.00 | 0.00 | 0.00 | 59 | 1021.4 |
| 20260902174542 | 68 | 113 | 3.0 | 10.0 | 0.00 | 0.00 | 0.00 | 57 | 1021.3 |
| 20260902173042 | 69 | 125 | 5.0 | 9.0 | 0.00 | 0.00 | 0.00 | 55 | 1021.4 |
| 20260902171542 | 69 | 116 | 6.0 | 12.0 | 0.00 | 0.00 | 0.00 | 54 | 1021.2 |
| 20260902170042 | 69 | 124 | 8.0 | 13.0 | 0.00 | 0.00 | 0.00 | 54 | 1021.0 |
| 20260902164541 | 70 | 96 | 6.0 | 11.0 | 0.00 | 0.00 | 0.00 | 53 | 1021.0 |
| 20260902163052 | 70 | 77 | 6.0 | 13.0 | 0.00 | 0.00 | 0.00 | 50 | 1021.1 |
| 20260902161539 | 71 | 122 | 7.0 | 12.0 | 0.00 | 0.00 | 0.00 | 49 | 1021.2 |
| 20260902160037 | 71 | 128 | 8.0 | 15.0 | 0.00 | 0.00 | 0.00 | 50 | 1021.3 |
| 20260902154537 | 71 | 99 | 5.0 | 12.0 | 0.00 | 0.00 | 0.00 | 50 | 1021.1 |
| 20260902153036 | 71 | 101 | 9.0 | 14.0 | 0.00 | 0.00 | 0.00 | 51 | 1021.2 |
| 20260902151536 | 71 | 108 | 7.0 | 16.0 | 0.00 | 0.00 | 0.00 | 51 | 1021.2 |
| 20260902150035 | 71 | 110 | 7.0 | 13.0 | 0.00 | 0.00 | 0.00 | 52 | 1021.3 |
| 20260902144538 | 71 | 163 | 10.0 | 16.0 | 0.00 | 0.00 | 0.00 | 52 | 1021.4 |
| 20260902143034 | 70 | 94 | 5.0 | 14.0 | 0.00 | 0.00 | 0.00 | 52 | 1021.4 |
| 20260902141538 | 71 | 107 | 8.0 | 13.0 | 0.00 | 0.00 | 0.00 | 54 | 1021.3 |
| 20260902140037 | 70 | 144 | 7.0 | 13.0 | 0.00 | 0.00 | 0.00 | 53 | 1021.3 |
| 20260902134539 | 70 | 112 | 5.0 | 15.0 | 0.00 | 0.00 | 0.00 | 54 | 1021.4 |
| 20260902133030 | 71 | 153 | 8.0 | 14.0 | 0.00 | 0.00 | 0.00 | 54 | 1021.5 |
| 20260902131542 | 70 | 90 | 9.0 | 18.0 | 0.00 | 0.00 | 0.00 | 56 | 1021.7 |
| 20260902130025 | 69 | 106 | 7.0 | 11.0 | 0.00 | 0.00 | 0.00 | 59 | 1021.5 |
| 20260902124526 | 69 | 140 | 10.0 | 16.0 | 0.00 | 0.00 | 0.00 | 58 | 1021.6 |
| 20260902123026 | 69 | 106 | 7.0 | 14.0 | 0.00 | 0.00 | 0.00 | 59 | 1021.6 |
| 20260902121525 | 69 | 90 | 5.0 | 18.0 | 0.00 | 0.00 | 0.00 | 57 | 1021.8 |
| 20260902120023 | 69 | 129 | 5.0 | 15.0 | 0.00 | 0.00 | 0.00 | 60 | 1021.7 |
| 20260902114525 | 68 | 94 | 8.0 | 17.0 | 0.00 | 0.00 | 0.00 | 58 | 1021.8 |
| 20260902113023 | 68 | 158 | 8.0 | 15.0 | 0.00 | 0.00 | 0.00 | 61 | 1021.7 |
| 20260902111522 | 68 | 92 | 13.0 | 17.0 | 0.00 | 0.00 | 0.00 | 60 | 1021.8 |
| 20260902110021 | 68 | 90 | 8.0 | 15.0 | 0.00 | 0.00 | 0.00 | 60 | 1022.0 |
| 20260902104521 | 68 | 102 | 8.0 | 14.0 | 0.00 | 0.00 | 0.00 | 62 | 1022.0 |
| 20260902103020 | 68 | 113 | 8.0 | 16.0 | 0.00 | 0.00 | 0.00 | 59 | 1022.2 |
| 20260902101519 | 69 | 92 | 8.0 | 15.0 | 0.00 | 0.00 | 0.00 | 59 | 1022.1 |
| 20260902100016 | 69 | 145 | 8.0 | 14.0 | 0.00 | 0.00 | 0.00 | 62 | 1022.1 |
| 20260902094512 | 68 | 122 | 6.0 | 10.0 | 0.00 | 0.00 | 0.00 | 63 | 1022.1 |
| 20260902093011 | 68 | 130 | 3.0 | 11.0 | 0.00 | 0.00 | 0.00 | 64 | 1022.0 |
| 20260902091521 | 68 | 130 | 4.0 | 12.0 | 0.00 | 0.00 | 0.00 | 63 | 1022.1 |
| 20260902090006 | 67 | 116 | 5.0 | 10.0 | 0.00 | 0.00 | 0.00 | 65 | 1022.1 |
| 20260902084502 | 66 | 102 | 5.0 | 8.0 | 0.00 | 0.00 | 0.00 | 68 | 1021.9 |
| 20260902083059 | 65 | 102 | 6.0 | 9.0 | 0.00 | 0.00 | 0.00 | 69 | 1021.7 |
| 20260902081556 | 64 | 122 | 4.0 | 8.0 | 0.00 | 0.00 | 0.00 | 73 | 1021.7 |
| 20260902080105 | 62 | 127 | 3.0 | 6.0 | 0.00 | 0.00 | 0.00 | 76 | 1021.7 |
| 20260902074547 | 60 | 78 | 1.0 | 4.0 | 0.00 | 0.00 | 0.00 | 80 | 1021.3 |
| 20260902073043 | 59 | 42 | 0.0 | 1.0 | 0.00 | 0.00 | 0.00 | 85 | 1021.6 |
| 20260902071556 | 58 | 42 | 0.0 | 0.0 | 0.00 | 0.00 | 0.00 | 87 | 1021.7 |
| 20260902070037 | 57 | 42 | 0.0 | 0.0 | 0.00 | 0.00 | 0.00 | 88 | 1021.6 |
| 20260902064535 | 56 | 42 | 0.0 | 0.0 | 0.00 | 0.00 | 0.00 | 87 | 1021.4 |
| 20260902063042 | 55 | 42 | 0.0 | 0.0 | 0.00 | 0.00 | 0.00 | 88 | 1021.0 |
| 20260902061544 | 54 | 42 | 0.0 | 0.0 | 0.00 | 0.00 | 0.00 | 89 | 1021.3 |
| 20260902060033 | 54 | 42 | 0.0 | 0.0 | 0.00 | 0.00 | 0.00 | 88 | 1021.3 |
| 20260902054538 | 54 | 42 | 0.0 | 0.0 | 0.00 | 0.00 | 0.00 | 88 | 1021.1 |
| 20260902053029 | 53 | 42 | 0.0 | 0.0 | 0.00 | 0.00 | 0.00 | 87 | 1021.0 |
| 20260902051531 | 54 | 42 | 0.0 | 0.0 | 0.00 | 0.00 | 0.00 | 87 | 1021.0 |
| 20260902050033 | 54 | 42 | 0.0 | 0.0 | 0.00 | 0.00 | 0.00 | 87 | 1021.0 |
| 20260902044530 | 54 | 42 | 0.0 | 3.0 | 0.00 | 0.00 | 0.00 | 87 | 1020.9 |
| 20260902043026 | 54 | 42 | 2.0 | 3.0 | 0.00 | 0.00 | 0.00 | 87 | 1020.8 |
| 20260902041532 | 53 | 48 | 0.0 | 3.0 | 0.00 | 0.00 | 0.00 | 87 | 1021.0 |
| 20260902040023 | 53 | 49 | 0.0 | 3.0 | 0.00 | 0.00 | 0.00 | 88 | 1021.0 |
| 20260902034523 | 53 | 50 | 0.0 | 0.0 | 0.00 | 0.00 | 0.00 | 88 | 1021.2 |
| 20260902033023 | 53 | 50 | 0.0 | 0.0 | 0.00 | 0.00 | 0.00 | 88 | 1021.3 |
| 20260902031523 | 53 | 50 | 0.0 | 0.0 | 0.00 | 0.00 | 0.00 | 88 | 1021.1 |
| 20260902030022 | 52 | 50 | 0.0 | 0.0 | 0.00 | 0.00 | 0.00 | 88 | 1021.2 |
| 20260902024521 | 52 | 50 | 0.0 | 0.0 | 0.00 | 0.00 | 0.00 | 87 | 1021.1 |
| 20260902023021 | 52 | 50 | 0.0 | 1.0 | 0.00 | 0.00 | 0.00 | 87 | 1021.2 |
| 20260902021526 | 52 | 50 | 0.0 | 1.0 | 0.00 | 0.00 | 0.00 | 87 | 1021.2 |
| 20260902020021 | 52 | 50 | 0.0 | 3.0 | 0.00 | 0.00 | 0.00 | 87 | 1021.3 |
| 20260902014528 | 52 | 49 | 2.0 | 3.0 | 0.00 | 0.00 | 0.00 | 88 | 1021.2 |
| 20260902013017 | 52 | 49 | 0.0 | 2.0 | 0.00 | 0.00 | 0.00 | 87 | 1021.3 |
| 20260902011522 | 52 | 49 | 1.0 | 3.0 | 0.00 | 0.00 | 0.00 | 87 | 1021.4 |
| 20260902010029 | 52 | 49 | 1.0 | 2.0 | 0.00 | 0.00 | 0.00 | 87 | 1021.4 |
| 20260902004518 | 52 | 49 | 2.0 | 3.0 | 0.00 | 0.00 | 0.00 | 86 | 1021.4 |
| 20260902003012 | 52 | 49 | 0.0 | 0.0 | 0.00 | 0.00 | 0.00 | 86 | 1021.4 |
| 20260902001510 | 53 | 49 | 0.0 | 1.0 | 0.00 | 0.00 | 0.00 | 86 | 1021.3 |
| 20260902000013 | 53 | 49 | 1.0 | 3.0 | 0.00 | 0.00 | 0.00 | 86 | 1021.3 |
| 20260901234508 | 53 | 49 | 1.0 | 4.0 | 0.00 | 0.00 | 0.00 | 86 | 1021.3 |
| 20260901233010 | 53 | 129 | 0.0 | 0.0 | 0.00 | 0.00 | 0.00 | 85 | 1021.4 |
| 20260901231506 | 53 | 129 | 0.0 | 0.0 | 0.00 | 0.00 | 0.00 | 85 | 1021.5 |
| 20260901230005 | 54 | 129 | 0.0 | 0.0 | 0.00 | 0.00 | 0.00 | 85 | 1021.5 |
| 20260901224501 | 54 | 129 | 0.0 | 0.0 | 0.00 | 0.00 | 0.00 | 84 | 1021.5 |
| 20260901223104 | 54 | 129 | 0.0 | 0.0 | 0.00 | 0.00 | 0.00 | 84 | 1021.7 |
| 20260901221615 | 54 | 129 | 0.0 | 0.0 | 0.00 | 0.00 | 0.00 | 84 | 1021.7 |
| 20260901220055 | 55 | 129 | 0.0 | 0.0 | 0.00 | 0.00 | 0.00 | 83 | 1021.6 |
| 20260901214555 | 55 | 129 | 0.0 | 0.0 | 0.00 | 0.00 | 0.00 | 83 | 1021.7 |
| 20260901213100 | 55 | 129 | 0.0 | 0.0 | 0.00 | 0.00 | 0.00 | 82 | 1021.7 |
| 20260901211554 | 56 | 128 | 0.0 | 0.0 | 0.00 | 0.00 | 0.00 | 82 | 1021.7 |
| 20260901210052 | 56 | 128 | 0.0 | 0.0 | 0.00 | 0.00 | 0.00 | 81 | 1021.6 |
| 20260901204552 | 57 | 128 | 0.0 | 0.0 | 0.00 | 0.00 | 0.00 | 80 | 1021.4 |
| 20260901203052 | 57 | 129 | 0.0 | 0.0 | 0.00 | 0.00 | 0.00 | 79 | 1021.4 |
| 20260901201551 | 58 | 128 | 0.0 | 0.0 | 0.00 | 0.00 | 0.00 | 78 | 1021.6 |
| 20260901200104 | 58 | 129 | 0.0 | 0.0 | 0.00 | 0.00 | 0.00 | 78 | 1021.4 |
| 20260901194558 | 59 | 129 | 0.0 | 0.0 | 0.00 | 0.00 | 0.00 | 76 | 1021.4 |
| 20260901193059 | 60 | 129 | 0.0 | 0.0 | 0.00 | 0.00 | 0.00 | 74 | 1021.3 |
| 20260901191549 | 61 | 129 | 0.0 | 0.0 | 0.00 | 0.00 | 0.00 | 73 | 1021.4 |
| 20260901190100 | 63 | 129 | 0.0 | 0.0 | 0.00 | 0.00 | 0.00 | 69 | 1021.4 |
| 20260901184547 | 64 | 129 | 0.0 | 0.0 | 0.00 | 0.00 | 0.00 | 67 | 1021.3 |
| 20260901183046 | 65 | 129 | 0.0 | 2.0 | 0.00 | 0.00 | 0.00 | 65 | 1021.3 |